History for Miami, FL

Thursday, November 15, 2012 — View Current Conditions

Jump to Data:

Date:
Airport Code:
Recently Viewed Airport Codes: KMIA
Daily Summary
  Actual Average Record
Temperature
Mean Temperature 76°F 75°F  
Max Temperature 82°F 82°F 88°F (2008)
Min Temperature 69°F 68°F 44°F (1975)
Degree Days
Heating Degree Days 0 0  
Month to date heating degree days 1 0  
Since 1 July heating degree days 1 0  
Cooling Degree Days 11 10  
Month to date cooling degree days 117 166  
Year to date cooling degree days 4356 4238  
Growing Degree Days 26 (Base 50)    
Moisture
Dew Point 63°F    
Average Humidity 63    
Maximum Humidity 79    
Minimum Humidity 47    
Precipitation
Precipitation 0.00 in 0.11 in 3.41 in (1994)
Month to date precipitation 0.24 1.91  
Year to date precipitation 86.17 58.50  
Snow
Snow 0.00 in in in ()
Month to date snowfall 0.0  
Since 1 July snowfall 0.0  
Since 1 September snowfall 0.0  
Snow Depth 0.00 in    
Sea Level Pressure
Sea Level Pressure 30.06 in    
Wind
Wind Speed 5 mph (NE)    
Max Wind Speed 12 mph    
Max Gust Speed 23 mph    
Visibility 10 miles    
Events      
T = Trace of Precipitation, MM = Missing Value Source: NWS Daily Summary

Show full METARS

(help) - Comma Delimited File

Hourly Observations

Time(EST) Temperature Dew Point Humidity Sea Level Pressure Visibility Wind Direction Wind Speed Gust Speed Precipitation Events Conditions
12:53 AM 72.0°F 64.9°F 78% 30.07 in 10.0 miles North 5.8 mph - N/A   Partly Cloudy
1:53 AM 71.1°F 64.0°F 78% 30.07 in 10.0 miles North 4.6 mph - N/A   Mostly Cloudy
2:53 AM 71.1°F 63.0°F 75% 30.05 in 10.0 miles NNE 5.8 mph - N/A   Clear
3:53 AM 72.0°F 64.0°F 76% 30.04 in 10.0 miles NNE 3.5 mph - N/A   Partly Cloudy
4:53 AM 72.0°F 63.0°F 73% 30.04 in 10.0 miles North 4.6 mph - N/A   Scattered Clouds
5:53 AM 70.0°F 63.0°F 78% 30.06 in 10.0 miles NNW 4.6 mph - N/A   Scattered Clouds
6:53 AM 69.1°F 63.0°F 81% 30.06 in 10.0 miles Calm Calm - N/A   Partly Cloudy
7:53 AM 73.0°F 64.0°F 73% 30.08 in 10.0 miles NNE 4.6 mph - N/A   Scattered Clouds
8:53 AM 77.0°F 64.9°F 66% 30.09 in 10.0 miles Calm Calm - N/A   Partly Cloudy
9:53 AM 79.0°F 63.0°F 58% 30.10 in 10.0 miles Calm Calm - N/A   Scattered Clouds
10:53 AM 80.1°F 62.1°F 54% 30.10 in 10.0 miles East 4.6 mph - N/A   Scattered Clouds
11:53 AM 80.1°F 61.0°F 52% 30.08 in 10.0 miles ENE 8.1 mph - N/A   Mostly Cloudy
12:53 PM 82.0°F 61.0°F 49% 30.06 in 10.0 miles East 8.1 mph - N/A   Scattered Clouds
1:53 PM 81.0°F 61.0°F 50% 30.04 in 10.0 miles ENE 6.9 mph - N/A   Mostly Cloudy
2:53 PM 81.0°F 61.0°F 50% 30.04 in 10.0 miles East 9.2 mph - N/A   Scattered Clouds
3:53 PM 79.0°F 61.0°F 54% 30.04 in 10.0 miles East 8.1 mph - N/A   Scattered Clouds
4:53 PM 77.0°F 60.1°F 56% 30.04 in 10.0 miles East 9.2 mph - N/A   Scattered Clouds
5:53 PM 75.9°F 60.1°F 58% 30.05 in 10.0 miles ENE 8.1 mph - N/A   Scattered Clouds
6:53 PM 75.9°F 62.1°F 62% 30.06 in 10.0 miles NE 4.6 mph - N/A   Scattered Clouds
7:53 PM 75.9°F 63.0°F 64% 30.08 in 10.0 miles Calm Calm - N/A   Mostly Cloudy
8:53 PM 75.0°F 63.0°F 66% 30.09 in 10.0 miles NNE 4.6 mph - N/A   Mostly Cloudy
9:53 PM 75.0°F 63.0°F 66% 30.08 in 10.0 miles North 4.6 mph - N/A   Mostly Cloudy
10:53 PM 73.9°F 66.0°F 76% 30.08 in 10.0 miles North 5.8 mph - N/A   Scattered Clouds
11:53 PM 72.0°F 64.9°F 78% 30.07 in 10.0 miles Variable 3.5 mph - N/A   Mostly Cloudy